sat.trackr.live / text

‹ back to catalog

ONEWEB-0036

NORAD 45144 · 2020-008P

PAYLOAD ACTIVE UNKNOWN

§ Identity

Operator
Country
UK
Launch date
2020-02-06
Launch site
TYMSC
Launch vehicle
Mass (kg)
RCS (m²)

Purposes: comms

External: N2YO · Heavens-Above · Gunter

§ Orbital elements

Epoch: 2026-09-20T02:46:27.588576Z

Period
109.89 min
Inclination
87.8922°
Eccentricity
0.0001897
Mean motion
13.10371194 rev/d
Perigee alt
1,220.3 km
Apogee alt
1,223.2 km
Semi-major
7,599.9 km
B*
-1.8565e-3
RAAN
17.3988°
Arg perigee
104.8974°
Mean anomaly
255.2364°
Rev number
32,079

§ Raw data

ONEWEB-00361 45144U 20008P   26263.11559709 -.00000635  00000+0 -18565-2 0  99962 45144  87.8922  17.3988 0001897 104.8974 255.2364 13.10371194320798

JSON: /api/v1/satellites/45144 · /tle

For live sub-satellite position, see the globe view (requires WebGL).

§ Visibility from observer

Set your observer location to see the next 7 days of passes ≥ 10°. The values pass through the URL so the page stays shareable.

No JS? Fill the form by hand. The geolocation button needs JavaScript.